THORAD AGENA D DEB, 9666

Orbit data source: Space-Track

THORAD AGENA D DEB, 9666 is space debris in SSO originally from a launch on Wed, 08 Apr 1970 UTC launched from the Air Force Western Test Range (AFWTR). Debris objects in space refer to the collection of defunct objects orbiting the Earth. Examples of debris include non-operational satellites, rocket bodies, and fragments generated from explosions, collisions, or faulty payload assembly.

Loading next visibility...
Identifier
9666, 1970-025NK
Orbit
SSO
Country
Flag of USUS
Related business
Manufacturer
Unknown
Mission
Spacecraft
Bus & Motor
Unknown
Mass
Unknown
Launch date (UTC)
1970-04-08 (56 years ago)
Launch vehicle
Unknown
Launch site
Air Force Western Test Range (AFWTR)
Object type
Payload
Rocket body
Debris
Shape & HBR
Unknown shape, 0.1 m
Radar Cross Section
Small (<0.1 m²)

Expand to show TLE details & history
Last TLE update: 22 hours ago

TLE from 22 hours ago
0 THORAD AGENA D DEB
1 09666U 70025NK  25349.16958429  .00002386  00000-0  27079-2 0  9994
2 09666  99.2712 315.1023 0113069  62.8392   3.7808 13.68527459727691
Epoch: 2025-12-15T04:04Z
TLE epoch observation values (Epoch: 2025-12-15T04:04:12.082Z)
Latitude
65.11324°
Longitude
149.49019°
Altitude
932.728 km
Speed
7.433 km/s
True Right ascension
19h 38m 27s
True Declination
64° 59' 05"
Sunlit
Object was in daylight at epoch
Visualization orbit readout
Latitude
Unknown
Longitude
Unknown
Altitude
Unknown
Speed
Unknown
Apparent Right ascension
Unknown
Apparent Declination
Unknown
Sunlit
N/A
Visualization observer readout
Local Sidereal Time
00:54:21
Azimuth
Unknown
Elevation
Unknown
Doppler factor
Unknown
Orbital elements
Apogee altitude
1,085.565 km
Perigee altitude
918.669 km
Semi-major axis
7,380.254 km
Eccentricity
0.01131
Inclination
99.2712°
RAAN
315.1023°
Arg. of periapsis
62.8392°
True anomaly
3.86746°
Mean anomaly
3.7808°
Eccentric anomaly
3.82401°
Mean motion
3.42323 °/min
Orbital period
105.16 mins
BSTAR
0.0027079
Loading maneuver chart data...
Computing Atmospheric mass density...
Loading historical data...
Loading historical data...
Loading historical data...
Loading historical data...
Loading historical data...
Loading historical data...
Loading historical data...

Documentation

Showing up to 5 results
|